| time (UTC) | temp F | wind direction | speed knots | gust knots | rain 1hr in | rain 24hr in | rain mn in | humidity % | barometer mb |
| 20260509101554 | 56 | 179 | 0.0 | 0.0 | 0.00 | 0.00 | 0.00 | 85 | 1028.3 |
| 20260509100035 | 56 | 169 | 0.0 | 1.7 | 0.00 | 0.00 | 0.00 | 85 | 1028.2 |
| 20260509094539 | 56 | 150 | 0.0 | 1.7 | 0.00 | 0.00 | 0.00 | 85 | 1028.2 |
| 20260509093034 | 57 | 146 | 0.0 | 2.6 | 0.00 | 0.00 | 0.00 | 85 | 1028.1 |
| 20260509091530 | 57 | 192 | 0.0 | 2.6 | 0.00 | 0.00 | 0.00 | 85 | 1028.2 |
| 20260509090035 | 57 | 138 | 0.0 | 1.7 | 0.00 | 0.00 | 0.00 | 85 | 1028.1 |
| 20260509084526 | 57 | 146 | 0.9 | 4.3 | 0.00 | 0.00 | 0.00 | 85 | 1027.9 |
| 20260509083035 | 57 | 158 | 0.0 | 1.7 | 0.00 | 0.00 | 0.00 | 85 | 1027.7 |
| 20260509081524 | 57 | 160 | 0.9 | 1.7 | 0.00 | 0.00 | 0.00 | 84 | 1027.5 |
| 20260509080023 | 57 | 148 | 0.0 | 3.5 | 0.00 | 0.00 | 0.00 | 83 | 1027.4 |
| 20260509074522 | 58 | 155 | 0.9 | 3.5 | 0.00 | 0.00 | 0.00 | 83 | 1027.3 |
| 20260509073029 | 58 | 153 | 1.7 | 6.1 | 0.00 | 0.00 | 0.00 | 82 | 1027.1 |
| 20260509071526 | 58 | 134 | 0.9 | 2.6 | 0.00 | 0.00 | 0.00 | 82 | 1027.0 |
| 20260509070020 | 59 | 136 | 0.9 | 3.5 | 0.00 | 0.00 | 0.00 | 80 | 1026.8 |
| 20260509064519 | 60 | 140 | 0.9 | 2.6 | 0.00 | 0.00 | 0.00 | 79 | 1026.7 |
| 20260509063023 | 60 | 133 | 0.9 | 3.5 | 0.00 | 0.00 | 0.00 | 78 | 1026.7 |
| 20260509061522 | 61 | 128 | 0.9 | 2.6 | 0.00 | 0.00 | 0.00 | 76 | 1026.6 |
| 20260509060019 | 61 | 129 | 1.7 | 3.5 | 0.00 | 0.00 | 0.00 | 74 | 1026.5 |
| 20260509054516 | 62 | 145 | 0.9 | 3.5 | 0.00 | 0.00 | 0.00 | 73 | 1026.5 |
| 20260509053017 | 62 | 124 | 0.9 | 3.5 | 0.00 | 0.00 | 0.00 | 72 | 1026.4 |
| 20260509051515 | 62 | 129 | 1.7 | 3.5 | 0.00 | 0.00 | 0.00 | 70 | 1026.4 |
| 20260509050019 | 62 | 201 | 0.9 | 3.5 | 0.00 | 0.00 | 0.00 | 70 | 1026.4 |
| 20260509044515 | 63 | 131 | 0.9 | 4.3 | 0.00 | 0.00 | 0.00 | 70 | 1026.5 |
| 20260509043012 | 64 | 127 | 1.7 | 2.6 | 0.00 | 0.00 | 0.00 | 65 | 1026.6 |
| 20260509041511 | 63 | 269 | 0.9 | 3.5 | 0.00 | 0.00 | 0.00 | 67 | 1026.6 |
| 20260509040009 | 62 | 254 | 0.9 | 4.3 | 0.00 | 0.00 | 0.00 | 68 | 1026.6 |
| 20260509034505 | 62 | 276 | 0.9 | 3.5 | 0.00 | 0.00 | 0.00 | 69 | 1026.7 |
| 20260509033004 | 62 | 243 | 0.0 | 4.3 | 0.00 | 0.00 | 0.00 | 69 | 1026.9 |
| 20260509031507 | 61 | 266 | 2.6 | 4.3 | 0.00 | 0.00 | 0.00 | 70 | 1027.0 |
| 20260509030001 | 60 | 248 | 0.9 | 5.2 | 0.00 | 0.00 | 0.00 | 71 | 1027.2 |
| 20260509024602 | 60 | 269 | 0.9 | 2.6 | 0.00 | 0.00 | 0.00 | 72 | 1027.3 |
| 20260509023059 | 59 | 267 | 2.6 | 5.2 | 0.00 | 0.00 | 0.00 | 75 | 1027.5 |
| 20260509021554 | 58 | 255 | 4.3 | 8.7 | 0.00 | 0.00 | 0.00 | 76 | 1027.7 |
| 20260509014549 | 57 | 276 | 2.6 | 7.0 | 0.00 | 0.00 | 0.00 | 79 | 1028.0 |
| 20260509013047 | 56 | 260 | 2.6 | 9.6 | 0.00 | 0.00 | 0.00 | 81 | 1028.2 |
| 20260509011553 | 56 | 288 | 4.3 | 7.8 | 0.00 | 0.00 | 0.00 | 81 | 1028.2 |
| 20260509010045 | 56 | 284 | 3.5 | 8.7 | 0.00 | 0.00 | 0.00 | 82 | 1028.2 |
| 20260509004553 | 56 | 271 | 4.3 | 8.7 | 0.00 | 0.00 | 0.00 | 84 | 1028.1 |
| 20260509003050 | 55 | 278 | 5.2 | 10.4 | 0.00 | 0.00 | 0.00 | 85 | 1028.1 |
| 20260509001539 | 54 | 271 | 2.6 | 7.8 | 0.00 | 0.00 | 0.00 | 87 | 1028.3 |
| 20260509000038 | 54 | 255 | 1.7 | 8.7 | 0.00 | 0.00 | 0.00 | 87 | 1028.4 |
| 20260508234535 | 53 | 236 | 2.6 | 7.8 | 0.00 | 0.00 | 0.00 | 88 | 1028.3 |
| 20260508233034 | 53 | 274 | 3.5 | 9.6 | 0.00 | 0.00 | 0.00 | 90 | 1028.2 |
| 20260508231530 | 53 | 261 | 4.3 | 8.7 | 0.00 | 0.00 | 0.00 | 91 | 1028.0 |
| 20260508230027 | 52 | 296 | 3.5 | 9.6 | 0.00 | 0.00 | 0.00 | 92 | 1027.8 |
| 20260508224530 | 51 | 274 | 3.5 | 7.8 | 0.00 | 0.00 | 0.00 | 92 | 1027.8 |
| 20260508223040 | 51 | 245 | 3.5 | 7.8 | 0.00 | 0.00 | 0.00 | 91 | 1027.8 |
| 20260508221524 | 50 | 285 | 2.6 | 7.0 | 0.00 | 0.00 | 0.00 | 91 | 1027.6 |
| 20260508220023 | 50 | 261 | 3.5 | 7.8 | 0.00 | 0.00 | 0.00 | 91 | 1027.5 |
| 20260508214520 | 50 | 274 | 2.6 | 5.2 | 0.00 | 0.00 | 0.00 | 91 | 1027.4 |
| 20260508213023 | 50 | 266 | 2.6 | 5.2 | 0.00 | 0.00 | 0.00 | 91 | 1027.3 |
| 20260508211517 | 50 | 274 | 2.6 | 5.2 | 0.00 | 0.00 | 0.00 | 91 | 1027.2 |
| 20260508210019 | 50 | 295 | 2.6 | 5.2 | 0.00 | 0.00 | 0.00 | 91 | 1027.1 |
| 20260508204515 | 50 | 269 | 3.5 | 6.1 | 0.00 | 0.00 | 0.00 | 91 | 1027.0 |
| 20260508203013 | 50 | 255 | 4.3 | 7.8 | 0.00 | 0.00 | 0.00 | 91 | 1026.8 |
| 20260508201517 | 50 | 258 | 3.5 | 6.1 | 0.00 | 0.00 | 0.00 | 91 | 1026.8 |
| 20260508200013 | 50 | 276 | 3.5 | 7.0 | 0.00 | 0.00 | 0.00 | 91 | 1026.6 |
| 20260508194506 | 50 | 274 | 4.3 | 7.0 | 0.00 | 0.00 | 0.00 | 91 | 1026.3 |
| 20260508193003 | 49 | 264 | 4.3 | 7.8 | 0.00 | 0.00 | 0.00 | 91 | 1026.3 |
| 20260508191600 | 49 | 285 | 3.5 | 6.1 | 0.00 | 0.00 | 0.00 | 90 | 1026.2 |
| 20260508190058 | 50 | 287 | 3.5 | 7.0 | 0.00 | 0.00 | 0.00 | 91 | 1026.1 |
| 20260508184557 | 50 | 293 | 4.3 | 7.0 | 0.00 | 0.00 | 0.00 | 91 | 1025.9 |
| 20260508183054 | 50 | 267 | 3.5 | 6.1 | 0.00 | 0.00 | 0.00 | 91 | 1025.8 |
| 20260508181556 | 50 | 265 | 2.6 | 6.1 | 0.00 | 0.00 | 0.00 | 91 | 1025.7 |
| 20260508180050 | 50 | 282 | 3.5 | 5.2 | 0.00 | 0.00 | 0.00 | 91 | 1025.6 |
| 20260508174556 | 50 | 276 | 3.5 | 5.2 | 0.00 | 0.00 | 0.00 | 90 | 1025.6 |
| 20260508173049 | 50 | 260 | 3.5 | 7.0 | 0.00 | 0.00 | 0.00 | 91 | 1025.4 |
| 20260508171545 | 50 | 254 | 5.2 | 7.8 | 0.00 | 0.00 | 0.00 | 91 | 1025.5 |
| 20260508170045 | 50 | 269 | 4.3 | 6.1 | 0.00 | 0.00 | 0.00 | 91 | 1025.5 |
| 20260508164541 | 50 | 272 | 1.7 | 5.2 | 0.00 | 0.00 | 0.00 | 90 | 1025.6 |
| 20260508163039 | 50 | 289 | 1.7 | 4.3 | 0.00 | 0.00 | 0.00 | 90 | 1025.6 |
| 20260508161538 | 51 | 280 | 3.5 | 6.1 | 0.00 | 0.00 | 0.00 | 90 | 1025.5 |
| 20260508160035 | 50 | 262 | 2.6 | 5.2 | 0.00 | 0.00 | 0.00 | 90 | 1025.6 |
| 20260508154534 | 50 | 279 | 2.6 | 4.3 | 0.00 | 0.00 | 0.00 | 90 | 1025.5 |
| 20260508153038 | 50 | 262 | 3.5 | 5.2 | 0.00 | 0.00 | 0.00 | 90 | 1025.5 |
| 20260508151530 | 49 | 265 | 3.5 | 6.1 | 0.00 | 0.00 | 0.00 | 90 | 1025.5 |
| 20260508150047 | 49 | 284 | 3.5 | 7.0 | 0.00 | 0.00 | 0.00 | 89 | 1025.3 |
| 20260508144524 | 50 | 269 | 3.5 | 5.2 | 0.00 | 0.00 | 0.00 | 89 | 1025.5 |
| 20260508143022 | 50 | 269 | 3.5 | 6.1 | 0.00 | 0.00 | 0.00 | 88 | 1025.5 |
| 20260508141524 | 51 | 278 | 2.6 | 6.1 | 0.00 | 0.00 | 0.00 | 88 | 1025.5 |
| 20260508140023 | 51 | 264 | 1.7 | 4.3 | 0.00 | 0.00 | 0.00 | 87 | 1025.6 |
| 20260508134513 | 51 | 278 | 2.6 | 6.1 | 0.00 | 0.00 | 0.00 | 87 | 1025.6 |
| 20260508133012 | 52 | 270 | 1.7 | 5.2 | 0.00 | 0.00 | 0.00 | 86 | 1025.6 |
| 20260508131509 | 52 | 277 | 3.5 | 7.8 | 0.00 | 0.00 | 0.00 | 86 | 1025.5 |
| 20260508130005 | 52 | 269 | 5.2 | 7.8 | 0.00 | 0.00 | 0.00 | 85 | 1025.6 |
| 20260508124505 | 53 | 265 | 3.5 | 7.0 | 0.00 | 0.00 | 0.00 | 84 | 1025.7 |
| 20260508123100 | 53 | 261 | 2.6 | 8.7 | 0.00 | 0.00 | 0.00 | 83 | 1025.9 |
| 20260508121558 | 53 | 269 | 4.3 | 7.8 | 0.00 | 0.00 | 0.00 | 82 | 1026.0 |
| 20260508120058 | 53 | 269 | 5.2 | 9.6 | 0.00 | 0.00 | 0.00 | 82 | 1025.9 |
| 20260508114655 | 53 | 262 | 4.3 | 8.7 | 0.00 | 0.00 | 0.00 | 81 | 1025.8 |
| 20260508113057 | 53 | 257 | 4.3 | 8.7 | 0.00 | 0.00 | 0.00 | 81 | 1025.7 |
| 20260508111602 | 54 | 272 | 4.3 | 9.6 | 0.00 | 0.00 | 0.00 | 80 | 1025.6 |
| 20260508110056 | 53 | 266 | 3.5 | 7.0 | 0.00 | 0.00 | 0.00 | 81 | 1025.7 |
| 20260508104552 | 53 | 276 | 3.5 | 7.0 | 0.00 | 0.00 | 0.00 | 81 | 1025.6 |
| 20260508103053 | 54 | 283 | 2.6 | 6.1 | 0.00 | 0.00 | 0.00 | 81 | 1025.5 |